Location: Bemmer
(51.5498°N, 5.6249°E)
Time: 18:06:01
(UTC+00:00)

Cosmos 2218 Rocket - Pass Details

Date: 03 March 2021
Orbit: 955 x 1007 km, 82.9° (Epoch: 12 April)

Event Time Altitude Azimuth Distance (km) Brightness Sun altitude
Rises 18:49:05 0° 165° (SSE) 3,724 6.8 -14.4°
Reaches altitude 10° 18:51:42 10° 159° (SSE) 2,779 6.1 -14.8°
Maximum altitude 18:57:43 45° 89° (E) 1,351 4.3 -15.7°
Drops below altitude 10° 19:03:44 10° 20° (NNE) 2,788 6.3 -16.6°
Sets 19:06:22 0° 14° (NNE) 3,736 7.0 -17.0°
